Ithaca, NY

11:58 AM EDT on May 24, 2017 (GMT -0400)
Tompkins County

Weather History for KITH - January, 2014

Change the Weather History Date:

Tuesday, January 14, 2014

  Actual Average Record
Temperature  
Mean Temperature 35 °F -  
Max Temperature 42 °F 30 °F 64 °F (1932)
Min Temperature 28 °F 10 °F -18 °F (1957)
Degree Days  
Heating Degree Days 30    
Moisture  
Dew Point 37 °F    
Average Humidity 93    
Maximum Humidity 100    
Minimum Humidity 87    
Precipitation  
Precipitation 0.00 in - - ()
Sea Level Pressure  
Sea Level Pressure 29.73 in    
Wind  
Wind Speed 8 mph (WNW)    
Max Wind Speed 12 mph    
Max Gust Speed -    
Visibility 7 miles    
Events Rain    
Averages and records for this station are not official NWS values.
T = Trace of Precipitation, MM = Missing Value Source: NWS Daily Summary

Daily Weather History Graph

Daily Weather History Graph

Search for Another Location

Airport or City:

Trip Planner

Search our weather history database for the weather conditions in past years. The results will help you decide how hot, cold, wet, or windy it might be!

Date:

Astronomy

Jan. 14, 2014 Rise Set
Actual Time 7:33 AM EST 4:57 PM EST
Civil Twilight 7:02 AM EST 5:28 PM EST
Nautical Twilight 6:27 AM EST 6:03 PM EST
Astronomical Twilight 5:53 AM EST 6:36 PM EST
Moon 4:01 PM EST (1/14) 6:05 AM EST (1/14)
Length of Visible Light 10h 26m
Length of Day
9h 23m
Waxing Gibbous, 98% of the Moon is Illuminated
Jan 14
Waxing Gibbous
Jan 15
Full
Jan 24
Last Quarter
Jan 30
New
Feb 6
First Quarter

Hourly Weather History & Observations

Time (EST) Temp. Windchill Dew Point Humidity Pressure Visibility Wind Dir Wind Speed Gust Speed Precip Events Conditions
5:15 AM 42.8 °F 37.0 °F 39.2 °F 87% 29.69 in 10.0 mi South 10.4 mph - N/A Rain Light Rain
5:56 AM 42.8 °F 36.6 °F 41.0 °F 93% 29.69 in 10.0 mi South 11.5 mph - N/A Rain Light Rain
6:30 AM 42.8 °F 37.5 °F 39.2 °F 87% 29.69 in 10.0 mi South 9.2 mph - N/A Rain Light Rain
6:56 AM 42.8 °F 36.6 °F 41.0 °F 93% 29.69 in 10.0 mi SSE 11.5 mph - N/A Rain Light Rain
7:56 AM 42.8 °F 37.5 °F 39.2 °F 87% 29.69 in 8.0 mi South 9.2 mph - N/A Rain Light Rain
8:56 AM 41.0 °F 37.1 °F 39.2 °F 93% 29.73 in 5.0 mi West 5.8 mph - N/A Rain Light Rain
9:56 AM 41.0 °F 38.0 °F 41.0 °F 100% 29.73 in 10.0 mi Variable 4.6 mph - N/A Rain Light Rain
10:40 AM 41.0 °F 38.0 °F 41.0 °F 100% 29.74 in 5.0 mi WSW 4.6 mph - N/A Rain Light Rain
10:56 AM 42.8 °F 40.1 °F 41.0 °F 93% 29.73 in 4.0 mi Variable 4.6 mph - N/A Rain Light Rain
11:56 AM 42.8 °F - 42.8 °F 100% 29.71 in 4.0 mi Calm Calm - N/A   Overcast
12:56 PM 39.2 °F 32.5 °F 37.4 °F 93% 29.71 in 2.0 mi North 10.4 mph - N/A Rain Light Rain
1:56 PM 39.2 °F 35.0 °F 37.4 °F 93% 29.73 in 2.0 mi North 5.8 mph - N/A Rain Light Rain
2:56 PM 39.2 °F 35.9 °F 37.4 °F 93% 29.72 in 4.0 mi North 4.6 mph - N/A   Overcast
3:56 PM 37.4 °F 32.8 °F 35.6 °F 93% 29.72 in 4.0 mi North 5.8 mph - N/A   Overcast
4:56 PM 37.4 °F 33.8 °F 33.8 °F 87% 29.75 in 6.0 mi NW 4.6 mph - N/A   Overcast
5:56 PM 35.6 °F 30.7 °F 33.8 °F 93% 29.78 in 10.0 mi North 5.8 mph - N/A   Overcast
7:56 PM 33.8 °F 28.6 °F 30.2 °F 87% 29.80 in 10.0 mi NNW 5.8 mph - N/A   Overcast
9:56 PM 28.4 °F - 28.4 °F 100% 29.83 in 10.0 mi Calm Calm - N/A   Overcast
10:16 PM 28.4 °F - 28.4 °F 100% 29.83 in 3.0 mi Calm Calm - N/A   Overcast